Location: Geçitköy
(36.7327°N, 29.8010°E)
Time: 19:33:22
(UTC+00:00)

Cosmos 1470 Rocket - Pass Details

Date: 12 January 2026
Orbit: 597 x 626 km, 82.5° (Epoch: 10 February)

Event Time Altitude Azimuth Distance (km) Brightness Sun altitude
Rises 16:05:02 0° 357° (N) 2,853 6.8 -11.9°
Reaches altitude 10° 16:07:16 10° 1° (N) 1,949 5.9 -12.3°
Maximum altitude 16:11:32 60° 81° (E) 690 3.5 -13.1°
Drops below altitude 10° 16:15:47 10° 162° (SSE) 1,949 6.1 -14.0°
Sets 16:18:02 0° 166° (SSE) 2,854 7.0 -14.4°
